JR2LGW-13 Weather Reports


time (UTC)temp
C
wind
direction
speed
KPH
gust
KPH
rain 1hr
cm
rain 24hr
cm
rain mn
cm
humidity
%
barometer
mb
20260508102907 21 319 17.7 30.6 0.00 0.00 0.00 64 1006.3
20260508102006 21 316 14.5 25.7 0.00 0.00 0.00 64 1006.2
20260508101108 20 291 9.7 16.1 0.00 0.00 0.00 76 1006.1
20260508094406 20 279 11.3 17.7 0.00 0.00 0.00 82 1006.0
20260508093506 20 280 12.9 20.9 0.00 0.00 0.00 81 1005.8
20260508092608 21 275 11.3 19.3 0.00 0.00 0.00 81 1005.8
20260508091711 21 275 11.3 16.1 0.00 0.00 0.00 81 1005.8
20260508085006 21 280 9.7 16.1 0.00 0.00 0.00 81 1005.7
20260508084107 21 269 9.7 14.5 0.00 0.00 0.00 80 1005.6
20260508083206 21 284 8.0 16.1 0.00 0.00 0.00 80 1005.5
20260508082307 21 277 8.0 16.1 0.00 0.00 0.00 81 1005.6
20260508081408 21 275 11.3 17.7 0.00 0.00 0.00 82 1005.8
20260508075608 21 263 11.3 22.5 0.00 0.00 0.00 82 1006.1
20260508074708 21 272 11.3 20.9 0.00 0.00 0.00 82 1005.9
20260508073808 21 262 8.0 16.1 0.00 0.00 0.00 83 1005.9
20260508072006 21 267 11.3 19.3 0.00 0.00 0.00 83 1006.2
20260508071106 21 273 11.3 19.3 0.00 0.00 0.00 83 1006.1
20260508070206 21 279 12.9 22.5 0.00 0.00 0.00 84 1006.2
20260508065307 20 269 14.5 20.9 0.00 0.00 0.00 84 1006.4
20260508061708 21 270 12.9 24.1 0.00 0.00 0.00 81 1006.2
20260508060808 21 278 14.5 24.1 0.00 0.00 0.00 81 1006.2
20260508055906 21 266 12.9 19.3 0.00 0.00 0.00 82 1006.4
20260508055007 21 267 14.5 22.5 0.00 0.00 0.00 82 1006.4
20260508054107 21 263 16.1 24.1 0.00 0.00 0.00 82 1006.4
20260508052307 22 255 14.5 24.1 0.00 0.00 0.00 80 1006.4
20260508051406 22 245 14.5 22.5 0.00 0.00 0.00 79 1006.4
20260508050506 22 263 16.1 24.1 0.00 0.00 0.00 79 1006.3
20260508045606 22 259 14.5 24.1 0.00 0.00 0.00 78 1006.5
20260508044706 22 258 14.5 25.7 0.00 0.00 0.00 78 1006.5
20260508042906 22 270 16.1 24.1 0.00 0.00 0.00 76 1007.1
20260508042007 23 260 16.1 25.7 0.00 0.00 0.00 76 1007.1
20260508041107 23 257 17.7 27.4 0.00 0.00 0.00 75 1007.1
20260508040208 23 245 14.5 22.5 0.00 0.00 0.00 73 1007.2
20260508035307 23 246 14.5 22.5 0.00 0.00 0.00 73 1007.1
20260508034406 23 270 14.5 22.5 0.00 0.00 0.00 74 1007.0
20260508033506 23 255 11.3 22.5 0.00 0.00 0.00 78 1007.3
20260508032606 22 264 12.9 19.3 0.00 0.00 0.00 78 1007.2
20260508031706 22 252 11.3 19.3 0.00 0.00 0.00 79 1007.4
20260508030806 22 259 11.3 19.3 0.00 0.00 0.00 80 1007.4
20260508025907 22 257 11.3 17.7 0.00 0.00 0.00 80 1007.4
20260508025006 21 259 11.3 17.7 0.00 0.00 0.00 81 1007.8
20260508024106 21 262 9.7 17.7 0.00 0.00 0.00 83 1007.9
20260508023206 21 239 9.7 16.1 0.00 0.00 0.00 83 1008.1
20260508022307 21 251 11.3 19.3 0.00 0.00 0.00 82 1008.2
20260508021408 21 238 11.3 19.3 0.00 0.00 0.00 83 1008.3
20260508020506 21 244 8.0 16.1 0.00 0.00 0.00 84 1008.4
20260508014706 21 258 11.3 19.3 0.00 0.00 0.00 85 1008.6
20260508013808 20 253 11.3 19.3 0.00 0.00 0.00 86 1008.8
20260508012906 20 268 11.3 19.3 0.00 0.00 0.00 86 1008.9
20260508012006 20 257 11.3 19.3 0.00 0.00 0.00 88 1009.1
20260508011107 20 246 12.9 20.9 0.00 0.00 0.00 87 1009.2
20260508010208 21 246 11.3 19.3 0.00 0.00 0.00 86 1009.1
20260508005308 21 239 8.0 16.1 0.00 0.00 0.00 86 1008.8
20260508004406 21 228 8.0 14.5 0.00 0.00 0.00 86 1008.9
20260508003507 21 253 8.0 14.5 0.00 0.00 0.00 85 1008.9
20260508002607 21 234 9.7 17.7 0.00 0.00 0.00 86 1008.8
20260508001707 21 228 9.7 14.5 0.00 0.00 0.00 83 1009.1
20260508000808 21 239 8.0 12.9 0.00 0.00 0.00 83 1008.9
20260507235906 22 216 6.4 14.5 0.00 0.00 0.00 82 1008.9
20260507235006 22 216 4.8 12.9 0.00 0.00 0.00 83 1008.9
20260507234108 22 226 6.4 12.9 0.00 0.00 0.00 82 1008.8
20260507233207 22 197 4.8 8.0 0.00 0.00 0.00 81 1009.0
20260507232307 22 188 4.8 9.7 0.00 0.00 0.00 81 1008.8
20260507231406 22 167 3.2 8.0 0.00 0.00 0.00 80 1009.0
20260507230506 22 239 3.2 6.4 0.00 0.00 0.00 82 1009.0
20260507225606 21 230 4.8 9.7 0.00 0.00 0.00 82 1009.3
20260507224706 21 264 3.2 8.0 0.00 0.00 0.00 82 1009.6
20260507223806 21 294 3.2 8.0 0.00 0.00 0.00 81 1009.7
20260507222906 21 70 1.6 4.8 0.00 0.00 0.00 82 1009.6
20260507222006 21 28 0.0 3.2 0.00 0.00 0.00 83 1009.5
20260507215307 20 28 0.0 3.2 0.00 0.00 0.00 85 1010.1
20260507212606 19 0 0.0 0.0 0.00 0.00 0.00 86 1010.2
20260507210806 19 0 0.0 0.0 0.00 0.00 0.00 86 1010.0
20260507205908 18 28 0.0 1.6 0.00 0.00 0.00 87 1010.1
20260507205006 18 6 1.6 4.8 0.00 0.00 0.00 87 1009.9
20260507204106 18 350 1.6 4.8 0.00 0.00 0.00 87 1010.0
20260507203206 18 350 1.6 4.8 0.00 0.00 0.00 87 1010.0
20260507201406 18 350 1.6 4.8 0.00 0.00 0.00 88 1010.1
20260507195606 18 346 0.0 1.6 0.00 0.00 0.00 88 1010.0
20260507194708 18 0 0.0 0.0 0.00 0.00 0.00 88 1009.9
20260507193806 18 350 0.0 4.8 0.00 0.00 0.00 88 1010.1
20260507192906 18 347 1.6 4.8 0.00 0.00 0.00 88 1010.1
20260507192006 18 340 0.0 3.2 0.00 0.00 0.00 89 1010.0
20260507191106 18 343 1.6 3.2 0.00 0.00 0.00 89 1010.1
20260507190207 18 342 1.6 4.8 0.00 0.00 0.00 89 1010.1
20260507184406 18 356 1.6 6.4 0.00 0.00 0.00 89 1010.3
20260507183506 18 9 1.6 4.8 0.00 0.00 0.00 88 1010.2
20260507182606 18 60 1.6 4.8 0.00 0.00 0.00 88 1010.2
20260507181706 18 60 1.6 3.2 0.00 0.00 0.00 88 1010.3
20260507180806 18 60 1.6 4.8 0.00 0.00 0.00 88 1010.4
20260507175907 18 20 1.6 4.8 0.00 0.00 0.00 88 1010.4
20260507175006 18 17 1.6 8.0 0.00 0.00 0.00 88 1010.3
20260507174106 19 359 3.2 6.4 0.00 0.00 0.00 88 1010.5
20260507173206 19 335 3.2 6.4 0.00 0.00 0.00 89 1010.6
20260507171406 19 322 1.6 4.8 0.00 0.00 0.00 90 1010.8
20260507165608 19 322 3.2 6.4 0.00 0.00 0.00 90 1011.0
20260507164706 19 319 1.6 3.2 0.00 0.00 0.00 89 1011.0
20260507163806 19 320 1.6 4.8 0.00 0.00 0.00 89 1011.2
20260507162906 19 317 3.2 4.8 0.00 0.00 0.00 89 1011.3
20260507162006 19 318 3.2 6.4 0.00 0.00 0.00 89 1011.5
20260507161106 19 320 3.2 6.4 0.00 0.00 0.00 89 1011.6
20260507160206 19 321 1.6 4.8 0.00 0.00 0.00 89 1011.5
20260507154406 19 312 3.2 4.8 0.00 0.00 0.00 89 1011.7
20260507153506 19 318 1.6 6.4 0.00 0.00 0.00 89 1011.6
20260507152607 20 318 1.6 4.8 0.00 0.00 0.00 89 1011.8
20260507151707 20 297 3.2 9.7 0.00 0.00 0.00 89 1011.7
20260507145006 20 262 3.2 6.4 0.00 0.00 0.00 89 1012.3
20260507144106 20 260 4.8 9.7 0.00 0.00 0.00 89 1012.4
20260507142307 20 279 3.2 6.4 0.00 0.00 0.00 88 1012.5
20260507141406 20 278 1.6 4.8 0.00 0.00 0.00 88 1012.4
20260507135606 20 279 1.6 4.8 0.00 0.00 0.00 88 1012.6
20260507134706 20 289 0.0 3.2 0.00 0.00 0.00 88 1012.6
20260507132006 20 283 1.6 4.8 0.00 0.00 0.00 88 1013.0
20260507131106 20 284 1.6 4.8 0.00 0.00 0.00 88 1013.0
20260507130206 20 280 1.6 4.8 0.00 0.00 0.00 88 1012.9